Location: Mountain Grove
(34.0887°N, 86.6172°W)
Time: 14:41:53
(UTC+00:00)

Cosmos 1408 - Pass Details

Date: 14 July 2020
Orbit: 471 x 493 km, 82.6° (Epoch: 13 August)

Event Time Altitude Azimuth Distance (km) Brightness Sun altitude
Exits shadow 03:30:38 43° 348° (NNW) 669 3.6 -24.9°
Drops below altitude 10° 03:33:11 10° 2° (N) 1,637 5.9 -25.2°
Sets 03:35:17 0° 4° (N) 2,519 6.9 -25.5°
